Home > Weather > Narva > Past weeks

Flag for Estonia Past Weather in Narva, Estonia — Yesterday and Last 2 Weeks

Now
68 °F

Mild.


Feels Like: 68 °F
Forecast: 60 / 67 °F
Wind: 3 mph from Southwest

Location: Narva

Current Time: Aug 25, 2016 at 6:23:46 PM

Latest Report: Aug 25, 2016 at 5:00 PM


Visibility: N/A

Pressure: 30.14 "Hg

Humidity: 74%

Dew Point: 60 °F

Location of NarvaLocation

Past Weather in Narva — Graph

°F

Narva Temperature Yesterday

Maximum temperature yesterday: 65 °F (at 2:00 PM)
Minimum temperature yesterday: 54 °F (at 1:00 AM)
Average temperature yesterday: 60 °F

High & Low Weather Summary for the Past Weeks

 TemperatureHumidityPressure
High77 °F (Aug 22, 3:00 PM)100% (Aug 20, 11:00 PM)30.22 "Hg (Aug 20, 11:00 PM)
Low47 °F (Aug 12, 5:00 AM)52% (Aug 21, 1:00 PM)29.59 "Hg (Aug 16, 10:00 AM)
Average60 °F87%29.96 "Hg
* Reported Aug 10 5:00 PM — Aug 25 5:00 PM, Narva, Weather by CustomWeather, © 2016

Note: Actual official high and low records may vary slightly from our data, if they occured in-between our weather recording intervals... More about our weather records

Advertising

Narva Weather History for the Previous 24 Hours

Scroll right to see more
 ConditionsComfort  
Time TempWeatherWind HumidityBarometerVisibility
5:00 PM
Thu, Aug 25
68 °FMild.3 mph74%30.14 "HgN/A
4:00 PM67 °FMild.5 mph73%30.16 "HgN/A
3:00 PM66 °FMild.6 mph74%30.17 "HgN/A
2:00 PM67 °FMild.5 mph73%30.18 "HgN/A
1:00 PM66 °FMild.5 mph70%30.19 "HgN/A
12:00 PM64 °FMild.3 mph81%30.20 "HgN/A
11:00 AM65 °FMild.5 mph80%30.20 "HgN/A
10:00 AM62 °FCool.3 mph84%30.21 "HgN/A
9:00 AM61 °FCool.3 mph95%30.22 "HgN/A
8:00 AM57 °FCool.2 mph99%30.22 "HgN/A
7:00 AM52 °FCool.1 mph100%30.22 "HgN/A
6:00 AM52 °FCool.1 mph100%30.21 "HgN/A
4:00 AM54 °FCool.1 mph99%30.21 "HgN/A
3:00 AM54 °FCool.2 mph99%30.21 "HgN/A
2:00 AM54 °FCool.2 mph99%30.20 "HgN/A
1:00 AM53 °FCool.2 mph99%30.21 "HgN/A
12:00 AM54 °FCool.2 mph98%30.21 "HgN/A
11:00 PM
Wed, Aug 24
58 °FCool.2 mph92%30.20 "HgN/A
10:00 PM59 °FCool.2 mph90%30.21 "HgN/A
9:00 PM59 °FCool.2 mph87%30.20 "HgN/A
8:00 PM60 °FCool.3 mph87%30.20 "HgN/A
7:00 PM61 °FCool.3 mph85%30.20 "HgN/A
6:00 PM61 °FCool.3 mph90%30.20 "HgN/A
Weather by CustomWeather, © 2016

See weather overviewHow to use our weather pages